Voltar ao catálogo

DELTA 1 DEB

AtivoPO
NORAD 42659·DEBRIS·🇺🇸 United States

Lançado Jun 12, 1975 de Vandenberg Space Force Base

Loading…

Próximas Passagens (próximas 24 horas)

TLE

AtualizadoSource: Space-Track

Época: Sep 13, 2026, 04:38 UTC

1 42659U 75052MU  26256.19325497  .00005942  00000-0  44207-3 0  9996
2 42659  98.2341  31.3196 0008020  66.9258  56.3151 15.03357892690935

Acompanhe DELTA 1 DEB em tempo real com AllMySat

Download on the App Store